N2PPN Weather Reports


time (UTC)temp
C
wind
direction
speed
KPH
gust
KPH
rain 1hr
cm
rain 24hr
cm
rain mn
cm
humidity
%
barometer
mb
20260504202054 17 209 12.9 14.5 0.00 0.00 0.00 63 1013.6
20260504201551 16 229 11.3 12.9 0.00 0.00 0.00 64 1013.7
20260504201048 16 231 19.3 20.9 0.00 0.00 0.00 64 1013.5
20260504200544 17 255 14.5 24.1 0.00 0.00 0.00 63 1013.7
20260504200042 17 211 17.7 20.9 0.00 0.00 0.00 62 1013.8
20260504195538 16 221 17.7 22.5 0.00 0.00 0.00 64 1013.8
20260504195035 17 189 12.9 16.1 0.00 0.00 0.00 63 1013.8
20260504194531 16 223 11.3 14.5 0.00 0.00 0.00 63 1013.9
20260504194026 17 228 12.9 16.1 0.00 0.00 0.00 64 1013.9
20260504193523 17 249 9.7 12.9 0.00 0.00 0.00 64 1013.9
20260504193022 17 199 20.9 25.7 0.00 0.00 0.00 63 1014.1
20260504192520 17 210 20.9 27.4 0.00 0.00 0.00 62 1014.1
20260504192018 17 177 20.9 27.4 0.00 0.00 0.00 60 1014.1
20260504191515 17 230 12.9 20.9 0.00 0.00 0.00 59 1014.1
20260504191011 17 222 11.3 17.7 0.00 0.00 0.00 59 1014.3
20260504190507 17 218 16.1 22.5 0.00 0.00 0.00 59 1014.3
20260504190004 17 223 16.1 22.5 0.00 0.00 0.00 59 1014.2
20260504185501 17 264 16.1 24.1 0.00 0.00 0.00 58 1014.2
20260504184957 17 218 12.9 16.1 0.00 0.00 0.00 59 1014.3
20260504184453 17 247 11.3 14.5 0.00 0.00 0.00 58 1014.3
20260504183948 17 211 14.5 17.7 0.00 0.00 0.00 59 1014.5
20260504183446 17 222 9.7 14.5 0.00 0.00 0.00 59 1014.4
20260504182944 17 201 14.5 17.7 0.00 0.00 0.00 59 1014.5
20260504182440 18 217 17.7 22.5 0.00 0.00 0.00 57 1014.5
20260504181938 18 230 14.5 17.7 0.00 0.00 0.00 57 1014.4
20260504181435 18 209 12.9 17.7 0.00 0.00 0.00 56 1014.6
20260504180933 17 224 22.5 29.0 0.00 0.00 0.00 56 1014.6
20260504180432 17 226 14.5 17.7 0.00 0.00 0.00 57 1014.8
20260504175930 18 180 11.3 12.9 0.00 0.00 0.00 56 1014.7
20260504175426 17 239 12.9 16.1 0.00 0.00 0.00 57 1014.6
20260504174924 17 226 17.7 20.9 0.00 0.00 0.00 59 1014.7
20260504174422 17 187 16.1 16.1 0.00 0.00 0.00 58 1014.6
20260504173919 17 219 9.7 9.7 0.00 0.00 0.00 59 1014.8
20260504173415 17 205 11.3 14.5 0.00 0.00 0.00 59 1014.8
20260504172913 17 218 14.5 17.7 0.00 0.00 0.00 59 1014.7
20260504172409 17 234 19.3 22.5 0.00 0.00 0.00 57 1014.7
20260504171905 17 215 16.1 17.7 0.00 0.00 0.00 58 1014.8
20260504171403 18 272 3.2 4.8 0.00 0.00 0.00 56 1015.1
20260504170859 17 184 6.4 14.5 0.00 0.00 0.00 59 1015.0
20260504170356 17 219 6.4 9.7 0.00 0.00 0.00 60 1015.4
20260504160315 17 222 12.9 14.5 0.00 0.00 0.00 51 1016.1
20260504150739 17 262 14.5 17.7 0.00 0.00 0.00 48 1016.5
20260504150236 17 233 11.3 16.1 0.00 0.00 0.00 47 1016.4
20260504141205 16 208 4.8 9.7 0.00 0.00 0.00 50 1016.7
20260504140702 16 285 3.2 6.4 0.00 0.00 0.00 50 1016.5
20260504140158 16 239 9.7 11.3 0.00 0.00 0.00 49 1016.5
20260504130626 15 182 4.8 4.8 0.00 0.00 0.00 54 1017.2
20260504130123 15 195 11.3 14.5 0.00 0.00 0.00 54 1017.3
20260504110514 11 125 0.0 0.0 0.00 0.00 0.00 66 1017.4
20260504100430 10 251 6.4 6.4 0.00 0.00 0.00 66 1017.1
20260504081823 9 251 0.0 0.0 0.00 0.00 0.00 61 1016.5
20260504081320 9 128 0.0 0.0 0.00 0.00 0.00 61 1016.5
20260504080816 9 116 0.0 0.0 0.00 0.00 0.00 61 1016.7
20260504080313 9 101 0.0 0.0 0.00 0.00 0.00 61 1016.6
20260504070240 10 119 0.0 0.0 0.00 0.00 0.00 60 1016.2
20260504060201 10 176 0.0 1.6 0.00 0.00 0.00 63 1016.0
20260504050629 10 173 0.0 0.0 0.00 0.00 0.00 60 1015.7
20260504050126 10 181 0.0 0.0 0.00 0.00 0.00 59 1015.9
20260504045623 10 180 0.0 0.0 0.00 0.00 0.00 60 1015.8
20260504045118 10 134 0.0 0.0 0.00 0.00 0.00 59 1015.8
20260504044616 10 150 0.0 0.0 0.00 0.00 0.00 59 1015.8
20260504044112 10 137 0.0 0.0 0.00 0.00 0.00 59 1015.6
20260504043610 10 136 0.0 0.0 0.00 0.00 0.00 59 1015.7
20260504043107 10 144 1.6 1.6 0.00 0.00 0.00 59 1016.0
20260504042604 10 239 0.0 1.6 0.00 0.00 0.00 59 1015.7
20260504042101 10 192 0.0 0.0 0.00 0.00 0.00 59 1015.7
20260504041556 10 130 0.0 0.0 0.00 0.00 0.00 59 1015.7
20260504041053 10 277 0.0 1.6 0.00 0.00 0.00 59 1015.6
20260504040550 10 266 0.0 0.0 0.00 0.00 0.00 60 1015.7
20260504040047 10 189 0.0 0.0 0.00 0.00 0.00 60 1015.5
20260504035544 10 189 0.0 0.0 0.00 0.00 0.00 60 1015.7
20260504035040 10 97 0.0 0.0 0.00 0.00 0.00 60 1015.4
20260504034538 10 135 0.0 0.0 0.00 0.00 0.00 58 1015.5
20260504034035 10 126 0.0 0.0 0.00 0.00 0.00 58 1015.5
20260504033533 11 257 0.0 0.0 0.00 0.00 0.00 57 1015.4
20260504033030 11 197 0.0 0.0 0.00 0.00 0.00 57 1015.4
20260504032527 11 259 0.0 1.6 0.00 0.00 0.00 57 1015.5
20260504032024 11 186 0.0 0.0 0.00 0.00 0.00 57 1015.4
20260504031521 11 183 0.0 0.0 0.00 0.00 0.00 56 1015.5
20260504031017 10 155 0.0 0.0 0.00 0.00 0.00 56 1015.6
20260504030514 10 152 0.0 1.6 0.00 0.00 0.00 57 1015.2
20260504030010 10 197 0.0 0.0 0.00 0.00 0.00 57 1015.4
20260504025507 10 166 0.0 0.0 0.00 0.00 0.00 57 1015.3
20260504025004 10 292 0.0 0.0 0.00 0.00 0.00 57 1015.5
20260504024501 10 114 0.0 0.0 0.00 0.00 0.00 55 1015.3
20260504023958 10 98 0.0 0.0 0.00 0.00 0.00 55 1015.4
20260504023455 10 99 0.0 0.0 0.00 0.00 0.00 54 1015.6
20260504022950 10 82 0.0 0.0 0.00 0.00 0.00 52 1015.4
20260504022446 10 80 0.0 0.0 0.00 0.00 0.00 53 1015.3
20260504021943 10 109 0.0 0.0 0.00 0.00 0.00 53 1015.6
20260504021441 10 84 0.0 0.0 0.00 0.00 0.00 52 1015.4
20260504020938 10 111 0.0 0.0 0.00 0.00 0.00 53 1015.3
20260504020434 10 86 0.0 0.0 0.00 0.00 0.00 49 1015.5
20260504015931 10 87 0.0 0.0 0.00 0.00 0.00 51 1015.5
20260504015427 10 98 0.0 0.0 0.00 0.00 0.00 52 1015.4
20260504014923 10 86 0.0 0.0 0.00 0.00 0.00 53 1015.3
20260504014419 10 78 0.0 0.0 0.00 0.00 0.00 51 1015.3
20260504013916 10 91 0.0 0.0 0.00 0.00 0.00 48 1015.2
20260504013415 10 182 0.0 0.0 0.00 0.00 0.00 49 1015.2
20260504012910 10 80 0.0 0.0 0.00 0.00 0.00 50 1015.1
20260504012409 10 91 0.0 0.0 0.00 0.00 0.00 48 1015.3
20260504011905 10 84 0.0 0.0 0.00 0.00 0.00 48 1015.0
20260504011403 11 77 0.0 0.0 0.00 0.00 0.00 45 1015.1
20260504010858 11 77 0.0 0.0 0.00 0.00 0.00 44 1014.6
20260504010354 11 84 0.0 0.0 0.00 0.00 0.00 42 1014.9
20260504005851 12 76 0.0 0.0 0.00 0.00 0.00 41 1014.9
20260504005348 12 77 0.0 0.0 0.00 0.00 0.00 39 1014.6
20260504004845 12 66 0.0 0.0 0.00 0.00 0.00 38 1014.7
20260504004343 12 79 0.0 0.0 0.00 0.00 0.00 38 1014.6
20260504003839 12 332 0.0 0.0 0.00 0.00 0.00 38 1014.5
20260504003336 12 49 0.0 0.0 0.00 0.00 0.00 37 1014.4
20260504002833 12 36 0.0 0.0 0.00 0.00 0.00 37 1014.5
20260504002329 13 57 0.0 0.0 0.00 0.00 0.00 36 1014.2
20260504001827 13 65 0.0 0.0 0.00 0.00 0.00 36 1014.3
20260504001324 13 58 0.0 0.0 0.00 0.00 0.00 35 1014.0
20260504000821 13 63 0.0 0.0 0.00 0.00 0.00 34 1014.0
20260504000318 13 51 0.0 0.0 0.00 0.00 0.00 34 1013.9
20260503235816 13 73 0.0 1.6 0.00 0.00 0.00 33 1014.1
20260503235313 13 8 0.0 0.0 0.00 0.00 0.00 33 1013.9
20260503234810 13 42 0.0 0.0 0.00 0.00 0.00 33 1014.0
20260503234308 13 40 0.0 0.0 0.00 0.00 0.00 33 1013.9
20260503233806 14 11 3.2 4.8 0.00 0.00 0.00 32 1013.8
20260503233301 14 357 3.2 3.2 0.00 0.00 0.00 32 1014.0
20260503232758 14 321 3.2 4.8 0.00 0.00 0.00 31 1013.4
20260503232256 14 277 3.2 4.8 0.00 0.00 0.00 31 1013.6
20260503231754 14 359 1.6 3.2 0.00 0.00 0.00 31 1013.5
20260503231250 15 32 3.2 4.8 0.00 0.00 0.00 31 1013.6
20260503230746 15 7 6.4 6.4 0.00 0.00 0.00 30 1013.5
20260503230243 15 178 1.6 1.6 0.00 0.00 0.00 30 1013.6
20260503225741 15 332 1.6 3.2 0.00 0.00 0.00 30 1013.4
20260503225241 15 273 8.0 11.3 0.00 0.00 0.00 30 1013.5
20260503224738 15 307 8.0 11.3 0.00 0.00 0.00 30 1013.3
20260503224236 15 345 8.0 9.7 0.00 0.00 0.00 30 1013.4
20260503223733 15 50 0.0 1.6 0.00 0.00 0.00 30 1013.4
20260503223231 15 5 8.0 11.3 0.00 0.00 0.00 30 1013.4
20260503222727 15 313 6.4 9.7 0.00 0.00 0.00 29 1013.3
20260503222225 15 353 1.6 4.8 0.00 0.00 0.00 30 1013.5
20260503221723 15 348 9.7 12.9 0.00 0.00 0.00 30 1013.4
20260503221221 15 351 11.3 16.1 0.00 0.00 0.00 30 1013.2
20260503220717 15 337 9.7 14.5 0.00 0.00 0.00 29 1013.4
20260503220214 15 316 12.9 17.7 0.00 0.00 0.00 29 1013.4
20260503215710 15 332 17.7 22.5 0.00 0.00 0.00 29 1013.4
20260503215207 15 328 1.6 3.2 0.00 0.00 0.00 30 1013.4
20260503214706 15 5 14.5 16.1 0.00 0.00 0.00 30 1013.3
20260503214201 15 351 6.4 12.9 0.00 0.00 0.00 30 1013.3
20260503213655 15 281 9.7 14.5 0.00 0.00 0.00 30 1013.2
20260503213151 15 343 6.4 9.7 0.00 0.00 0.00 30 1013.3
20260503212649 15 358 1.6 3.2 0.00 0.00 0.00 30 1013.1
20260503212147 15 290 8.0 11.3 0.00 0.00 0.00 31 1013.3
20260503211644 15 339 14.5 24.1 0.00 0.00 0.00 30 1013.1
20260503211139 16 319 9.7 20.9 0.00 0.00 0.00 31 1013.0
20260503210635 15 307 1.6 3.2 0.00 0.00 0.00 31 1013.1
20260503210132 15 323 6.4 12.9 0.00 0.00 0.00 31 1013.1
20260503205628 15 351 3.2 4.8 0.00 0.00 0.00 32 1013.1
20260503205125 15 349 11.3 16.1 0.00 0.00 0.00 32 1012.9
20260503204621 15 5 8.0 9.7 0.00 0.00 0.00 32 1013.2
20260503204119 15 4 4.8 6.4 0.00 0.00 0.00 32 1013.2
20260503203615 15 338 6.4 11.3 0.00 0.00 0.00 32 1013.0
20260503203113 14 6 8.0 12.9 0.00 0.00 0.00 33 1013.0
20260503202610 15 332 9.7 12.9 0.00 0.00 0.00 33 1013.2